GW2445 Weather Reports


Display with metric or nautical units.
time (UTC)temp
F
wind
direction
speed
MPH
gust
MPH
rain 1hr
in
rain 24hr
in
rain mn
in
humidity
%
barometer
mb
20260503215638 57 235 4.0 15.0 0.00 0.00 0.00 50 1009.8
20260503215132 57 259 4.0 10.0 0.00 0.00 0.00 49 1009.9
20260503214624 57 225 4.0 10.0 0.00 0.00 0.00 49 1009.8
20260503214116 57 208 3.0 11.0 0.00 0.00 0.00 48 1009.8
20260503213609 57 227 3.0 15.0 0.00 0.00 0.00 49 1009.8
20260503213103 57 203 4.0 15.0 0.00 0.00 0.00 48 1009.8
20260503212812 57 306 4.0 14.0 0.00 0.00 0.00 49 1009.8
20260503212043 57 252 4.0 14.0 0.00 0.00 0.00 49 1009.8
20260503211756 57 294 5.0 18.0 0.00 0.00 0.00 48 1009.7
20260503210521 58 242 5.0 14.0 0.00 0.00 0.00 45 1009.9
20260503210019 59 294 5.0 14.0 0.00 0.00 0.00 43 1009.8
20260503205520 60 330 6.0 15.0 0.00 0.00 0.00 43 1009.7
20260503205021 60 167 6.0 15.0 0.00 0.00 0.00 40 1009.9
20260503204518 60 273 5.0 14.0 0.00 0.00 0.00 40 1010.0
20260503204246 59 207 6.0 17.0 0.00 0.00 0.00 43 1009.9
20260503203517 59 229 7.0 18.0 0.00 0.00 0.00 39 1009.9
20260503203010 60 258 7.0 21.0 0.00 0.00 0.00 40 1010.0
20260503202738 60 263 7.0 21.0 0.00 0.00 0.00 39 1010.0
20260503202009 60 249 6.0 16.0 0.00 0.00 0.00 39 1010.2
20260503200943 60 319 6.0 24.0 0.00 0.00 0.00 39 1010.4
20260503200444 60 350 8.0 24.0 0.00 0.00 0.00 39 1010.5
20260503195944 60 260 7.0 19.0 0.00 0.00 0.00 38 1010.5
20260503194943 60 306 5.0 20.0 0.00 0.00 0.00 39 1010.7
20260503194710 60 219 5.0 20.0 0.00 0.00 0.00 41 1010.8
20260503193943 60 265 5.0 27.0 0.00 0.00 0.00 46 1010.9
20260503193440 60 252 7.0 27.0 0.00 0.00 0.00 43 1010.9
20260503193158 59 198 7.0 19.0 0.00 0.00 0.00 41 1011.0
20260503192654 60 266 6.0 19.0 0.00 0.00 0.00 44 1011.0
20260503191929 60 271 6.0 14.0 0.00 0.00 0.00 44 1011.1
20260503191419 60 213 7.0 17.0 0.00 0.00 0.00 44 1011.1
20260503190909 59 280 6.0 17.0 0.00 0.00 0.00 45 1011.1
20260503190403 60 303 6.0 15.0 0.00 0.00 0.00 42 1011.2
20260503190125 60 273 5.0 15.0 0.00 0.00 0.00 45 1011.2
20260503185401 60 323 5.0 14.0 0.00 0.00 0.00 45 1011.3
20260503184855 59 232 5.0 15.0 0.00 0.00 0.00 47 1011.3
20260503184355 59 205 5.0 15.0 0.00 0.00 0.00 44 1011.3
20260503183854 58 201 7.0 16.0 0.00 0.00 0.00 43 1011.6
20260503183353 58 273 8.0 19.0 0.00 0.00 0.00 45 1011.3
20260503182855 58 314 7.0 19.0 0.00 0.00 0.00 44 1011.5
20260503182354 58 272 6.0 18.0 0.00 0.00 0.00 44 1011.4
20260503182113 58 204 5.0 18.0 0.00 0.00 0.00 45 1011.7
20260503181353 58 229 5.0 15.0 0.00 0.00 0.00 44 1011.6
20260503180347 58 211 6.0 18.0 0.00 0.00 0.00 43 1011.8
20260503175332 59 226 6.0 18.0 0.00 0.00 0.00 42 1011.8
20260503175050 59 299 5.0 18.0 0.00 0.00 0.00 42 1011.8
20260503174548 59 151 5.0 21.0 0.00 0.00 0.00 47 1012.0
20260503173821 59 277 4.0 21.0 0.00 0.00 0.00 49 1011.9
20260503173323 59 182 3.0 10.0 0.00 0.00 0.00 47 1011.9
20260503172824 58 304 3.0 13.0 0.00 0.00 0.00 48 1012.1
20260503172310 57 289 4.0 13.0 0.00 0.00 0.00 51 1012.0
20260503171811 56 89 4.0 11.0 0.00 0.00 0.00 48 1012.1
20260503171525 56 202 4.0 11.0 0.00 0.00 0.00 48 1012.1
20260503170757 56 267 4.0 9.0 0.00 0.00 0.00 43 1012.2
20260503170522 57 290 4.0 14.0 0.00 0.00 0.00 45 1012.2
20260503150655 53 240 3.0 9.0 0.00 0.00 0.00 44 1013.2
20260503150142 52 293 3.0 10.0 0.00 0.00 0.00 49 1013.2
20260503140115 51 213 1.0 9.0 0.00 0.00 0.00 54 1013.4
20260503131041 46 192 2.0 9.0 0.00 0.00 0.00 68 1013.6
20260503130539 46 274 2.0 11.0 0.00 0.00 0.00 70 1013.5
20260503110827 35 205 0.0 4.0 0.00 0.00 0.00 85 1012.9
20260503110324 35 221 0.0 4.0 0.00 0.00 0.00 86 1012.8
20260503100200 34 158 0.0 0.0 0.00 0.00 0.00 85 1012.5
20260503090433 33 157 0.0 0.0 0.00 0.00 0.00 85 1012.6
20260503081354 33 157 0.0 2.0 0.00 0.00 0.00 85 1012.7
20260503080632 33 186 0.0 0.0 0.00 0.00 0.00 85 1012.8
20260503080326 33 186 0.0 1.0 0.00 0.00 0.00 85 1012.7
20260503072456 33 201 0.0 0.0 0.00 0.00 0.00 86 1012.8
20260503071434 33 201 0.0 1.0 0.00 0.00 0.00 86 1012.7
20260503070935 33 201 0.0 0.0 0.00 0.00 0.00 86 1012.6
20260503070420 33 201 0.0 0.0 0.00 0.00 0.00 86 1012.7
20260503060200 34 201 0.0 0.0 0.00 0.00 0.00 86 1013.3
20260503054631 34 201 0.0 0.0 0.00 0.00 0.00 86 1013.3
20260503054112 34 201 0.0 1.0 0.00 0.00 0.00 86 1013.3
20260503053612 34 201 0.0 2.0 0.00 0.00 0.00 86 1013.3
20260503053104 34 173 0.0 1.0 0.00 0.00 0.00 86 1013.4
20260503052540 34 173 0.0 2.0 0.00 0.00 0.00 86 1013.4
20260503052031 34 187 0.0 2.0 0.00 0.00 0.00 86 1013.4
20260503051530 34 186 0.0 0.0 0.00 0.00 0.00 86 1013.4
20260503051025 34 186 0.0 0.0 0.00 0.00 0.00 86 1013.4
20260503050525 34 186 0.0 0.0 0.00 0.00 0.00 85 1013.4
20260503050018 34 186 0.0 0.0 0.00 0.00 0.00 85 1013.5
20260503045728 34 186 0.0 0.0 0.00 0.00 0.00 85 1013.5
20260503044938 34 186 0.0 2.0 0.00 0.00 0.00 85 1013.5
20260503044430 34 186 0.0 2.0 0.00 0.00 0.00 85 1013.6
20260503043919 34 186 0.0 0.0 0.00 0.00 0.00 85 1013.6
20260503043333 35 186 0.0 0.0 0.00 0.00 0.00 84 1013.5
20260503042825 35 186 0.0 0.0 0.00 0.00 0.00 84 1013.5
20260503042320 35 186 0.0 2.0 0.00 0.00 0.00 84 1013.6
20260503041817 35 186 0.0 2.0 0.00 0.00 0.00 84 1013.6
20260503041308 35 186 0.0 0.0 0.00 0.00 0.00 83 1013.7
20260503040757 35 188 0.0 0.0 0.00 0.00 0.00 83 1013.7
20260503040240 35 188 0.0 0.0 0.00 0.00 0.00 83 1013.7
20260503035739 35 188 0.0 1.0 0.00 0.00 0.00 82 1013.6
20260503035223 35 187 0.0 1.0 0.00 0.00 0.00 82 1013.7
20260503034705 35 188 0.0 0.0 0.00 0.00 0.00 82 1013.6
20260503034346 35 188 0.0 0.0 0.00 0.00 0.00 82 1013.7
20260503033621 35 188 0.0 0.0 0.00 0.00 0.00 81 1013.7
20260503033103 36 188 0.0 0.0 0.00 0.00 0.00 81 1013.7
20260503032606 36 188 0.0 0.0 0.00 0.00 0.00 81 1013.8
20260503032028 36 188 0.0 0.0 0.00 0.00 0.00 81 1013.8
20260503031524 36 188 0.0 0.0 0.00 0.00 0.00 80 1013.8
20260503031004 36 188 0.0 0.0 0.00 0.00 0.00 80 1013.8
20260503030437 36 188 0.0 0.0 0.00 0.00 0.00 80 1013.9
20260503025932 36 188 0.0 0.0 0.00 0.00 0.00 80 1013.9
20260503025428 37 188 0.0 0.0 0.00 0.00 0.00 79 1013.8
20260503024904 37 188 0.0 1.0 0.00 0.00 0.00 79 1013.9
20260503024339 37 188 0.0 1.0 0.00 0.00 0.00 78 1014.0
20260503024103 37 259 0.0 0.0 0.00 0.00 0.00 78 1014.0
20260503023327 37 259 0.0 0.0 0.00 0.00 0.00 78 1014.1
20260503022814 38 259 0.0 0.0 0.00 0.00 0.00 77 1014.1
20260503022248 38 259 0.0 0.0 0.00 0.00 0.00 76 1014.1
20260503021731 38 259 0.0 0.0 0.00 0.00 0.00 76 1014.1
20260503021225 38 259 0.0 0.0 0.00 0.00 0.00 75 1014.1
20260503020724 38 259 0.0 1.0 0.00 0.00 0.00 74 1014.0
20260503020220 39 259 0.0 1.0 0.00 0.00 0.00 73 1014.2
20260503015721 39 259 0.0 0.0 0.00 0.00 0.00 72 1014.2
20260503015208 39 259 0.0 0.0 0.00 0.00 0.00 72 1014.1
20260503014655 40 259 0.0 0.0 0.00 0.00 0.00 71 1014.1
20260503013630 40 259 0.0 1.0 0.00 0.00 0.00 70 1014.1
20260503013129 40 259 0.0 4.0 0.00 0.00 0.00 69 1014.2
20260503012834 40 261 1.0 4.0 0.00 0.00 0.00 69 1014.1
20260503012055 41 321 1.0 5.0 0.00 0.00 0.00 69 1014.1
20260503011555 41 244 1.0 5.0 0.00 0.00 0.00 69 1014.1
20260503011037 41 193 0.0 5.0 0.00 0.00 0.00 69 1014.1
20260503010529 41 180 0.0 5.0 0.00 0.00 0.00 69 1014.0
20260503010013 41 250 1.0 5.0 0.00 0.00 0.00 68 1014.1
20260503005733 41 184 1.0 6.0 0.00 0.00 0.00 68 1014.1
20260503004958 41 290 1.0 6.0 0.00 0.00 0.00 68 1014.1
20260503004448 41 273 1.0 7.0 0.00 0.00 0.00 67 1014.1
20260503003937 41 231 1.0 7.0 0.00 0.00 0.00 67 1014.1
20260503003433 41 190 1.0 6.0 0.00 0.00 0.00 68 1014.1
20260503002927 41 259 1.0 6.0 0.00 0.00 0.00 69 1014.0
20260503002416 42 255 1.0 5.0 0.00 0.00 0.00 69 1013.9
20260503002143 42 255 1.0 5.0 0.00 0.00 0.00 68 1013.9
20260503001408 42 304 2.0 5.0 0.00 0.00 0.00 68 1014.0
20260503000851 42 223 1.0 5.0 0.00 0.00 0.00 68 1014.0
20260503000339 42 308 1.0 4.0 0.00 0.00 0.00 68 1013.9
20260502235829 42 288 1.0 4.0 0.00 0.00 0.00 68 1013.9
20260502235330 42 229 2.0 9.0 0.00 0.00 0.00 67 1013.9
20260502234831 42 182 1.0 9.0 0.00 0.00 0.00 67 1014.0
20260502233816 42 284 1.0 6.0 0.00 0.00 0.00 66 1014.0
20260502233259 42 299 1.0 4.0 0.00 0.00 0.00 64 1014.1
20260502232749 42 306 1.0 5.0 0.00 0.00 0.00 65 1014.0
20260502232240 42 323 1.0 5.0 0.00 0.00 0.00 67 1014.1
20260502231731 42 264 1.0 4.0 0.00 0.00 0.00 66 1014.1
20260502231223 42 327 1.0 6.0 0.00 0.00 0.00 67 1014.0
20260502230718 42 165 1.0 6.0 0.00 0.00 0.00 66 1014.0
20260502230207 42 200 1.0 5.0 0.00 0.00 0.00 68 1014.1
20260502225658 42 290 2.0 10.0 0.00 0.00 0.00 66 1014.1
20260502225147 42 251 2.0 10.0 0.00 0.00 0.00 65 1014.1
20260502224639 42 248 3.0 8.0 0.00 0.00 0.00 66 1014.1
20260502224137 43 259 2.0 8.0 0.00 0.00 0.00 65 1014.1
20260502223632 43 220 1.0 6.0 0.00 0.00 0.00 65 1014.0
20260502223131 43 267 1.0 4.0 0.00 0.00 0.00 65 1014.1
20260502222628 43 281 2.0 5.0 0.00 0.00 0.00 66 1014.1
20260502222122 43 302 2.0 7.0 0.00 0.00 0.00 66 1014.1
20260502221839 43 216 2.0 7.0 0.00 0.00 0.00 65 1014.1
20260502221118 43 253 2.0 7.0 0.00 0.00 0.00 66 1014.1
20260502220609 43 85 2.0 7.0 0.00 0.00 0.00 66 1014.1